STARLINK-32813, 62869

Orbit data source: Space-Track

STARLINK-32813, 62869 is a payload satellite owned by SpaceX/Seattle (US) in LEO that was launched on Sat, 01 Feb 2025 UTC via an FALCON 9 launch vehicle from the Air Force Western Test Range (AFWTR). Payload-class satellites include a variety of spacecraft equipped with specific instruments for various scientific and technological missions. These include communications satellites like Starlink; space stations such as the ISS; scientific satellites like the Hubble; Earth observation satellites from companies like Planet Labs, Umbra, and HawkEye 360; GPS; miniature CubeSats for education and research; and military/defense satellites.

Loading next visibility...
Identifier
62869, 2025-022R
Orbit
LEO
Country
Flag of USUS
Related business
Manufacturer
SpaceX/Seattle
Mission
Operational Commercial Communications
Bus & Motor
STARLINK V2M, Unknown motor
Mass
730 kg wet, ~700 kg dry
Launch date (UTC)
2025-02-01 (9 months ago)
Launch vehicle
FALCON 9
Launch site
Air Force Western Test Range (AFWTR)
Object type
Payload
Rocket body
Debris
Shape & HBR
Box + 2 Pan, 17.7 m
Radar Cross Section
33.884 m², Large (>1 m²)

Expand to show TLE details & history
Last TLE update: 9 hours ago

TLE from 9 hours ago
0 STARLINK-32813
1 62869U 25022R   25293.63133603  .00048398  00000-0  16348-2 0  9994
2 62869  53.1594  60.3768 0001342 100.4664 259.6488 15.30216030 40457
Epoch: 2025-10-20T15:09Z
TLE epoch observation values (Epoch: 2025-10-20T15:09:07.432Z)
Latitude
-0.00005°
Longitude
163.76492°
Altitude
476.232 km
Speed
7.629 km/s
True Right ascension
04h 01m 30s
True Declination
0° 00' 00"
Sunlit
Object was in full shadow at epoch
Visualization orbit readout
Latitude
Unknown
Longitude
Unknown
Altitude
Unknown
Speed
Unknown
Apparent Right ascension
Unknown
Apparent Declination
Unknown
Sunlit
N/A
Visualization observer readout
Local Sidereal Time
19:25:32
Azimuth
Unknown
Elevation
Unknown
Doppler factor
Unknown
Orbital elements
Apogee altitude
476.343 km
Perigee altitude
474.504 km
Semi-major axis
6,853.561 km
Eccentricity
0.00013
Inclination
53.1594°
RAAN
60.3768°
Arg. of periapsis
100.4664°
True anomaly
259.63367°
Mean anomaly
259.6488°
Eccentric anomaly
259.64124°
Mean motion
3.82533 °/min
Orbital period
94.11 mins
BSTAR
0.0016348
Loading maneuver chart data...
Computing Atmospheric mass density...
Loading historical data...
Loading historical data...
Loading historical data...
Loading historical data...
Loading historical data...
Loading historical data...
Loading historical data...

Documentation

Showing up to 5 results
|